When you browse on this site, cookies collect data to enhance your experience and personalize the content and advertising you see.
Visit our Privacy Policy to learn more. By continuing to use the site, you agree to this use of cookies and data.
  • In Portugal
  • List of Countries
  • For 7 days
  • Water Temperature
  • Weather Map
  • Weather Widgets
  • user-avatar
    Login

    Hourly Weather Perth

    Today, 30 May, Saturday

    Time Temperature Precipitation Wind Pressure Humidity
    00:00 +14°C° 0.1 mm 7 mps 760 mmHg 67%
    01:00 +14°C° 0.1 mm 6 mps 760 mmHg 68%
    02:00 +13°C° 0 mm 6 mps 760 mmHg 66%
    03:00 +13°C° 0 mm 5 mps 761 mmHg 66%
    04:00 +13°C° 0 mm 5 mps 761 mmHg 65%
    05:00 +13°C° 0 mm 4 mps 762 mmHg 64%
    06:00 +13°C° 0 mm 4 mps 762 mmHg 66%
    07:00 +13°C° 0 mm 3 mps 762 mmHg 67%
    08:00 +14°C° 0 mm 2 mps 763 mmHg 69%
    09:00 +15°C° 0 mm 2 mps 763 mmHg 65%
    10:00 +16°C° 0 mm 3 mps 764 mmHg 62%
    11:00 +17°C° 0 mm 4 mps 764 mmHg 58%
    12:00 +17°C° 0.1 mm 4 mps 763 mmHg 60%
    13:00 +17°C° 0.1 mm 4 mps 763 mmHg 62%
    14:00 +17°C° 0.1 mm 4 mps 763 mmHg 64%
    15:00 +15°C° 0.1 mm 4 mps 763 mmHg 66%
    16:00 +15°C° 0.1 mm 4 mps 763 mmHg 67%
    17:00 +15°C° 0.1 mm 4 mps 764 mmHg 69%
    18:00 +15°C° 0.1 mm 4 mps 764 mmHg 70%
    19:00 +14°C° 0.1 mm 4 mps 764 mmHg 71%
    20:00 +14°C° 0.1 mm 4 mps 765 mmHg 72%
    21:00 +14°C° 0.1 mm 4 mps 765 mmHg 73%
    22:00 +15°C° 0.1 mm 4 mps 765 mmHg 74%
    23:00 +15°C° 0.1 mm 4 mps 765 mmHg 75%

    Tomorrow, 31 May, Sunday

    Time Temperature Precipitation Wind Pressure Humidity
    00:00 +15°C° 0.1 mm 4 mps 765 mmHg 76%
    01:00 +15°C° 0.1 mm 4 mps 765 mmHg 78%
    02:00 +16°C° 0.1 mm 3 mps 765 mmHg 79%
    03:00 +15°C° 0.1 mm 4 mps 765 mmHg 80%
    04:00 +15°C° 0.1 mm 4 mps 765 mmHg 80%
    05:00 +15°C° 0.1 mm 4 mps 765 mmHg 81%
    06:00 +17°C° 0.2 mm 4 mps 765 mmHg 81%
    07:00 +17°C° 0.2 mm 4 mps 765 mmHg 81%
    08:00 +17°C° 0.2 mm 3 mps 766 mmHg 80%
    09:00 +18°C° 0.2 mm 4 mps 766 mmHg 77%
    10:00 +18°C° 0.2 mm 4 mps 767 mmHg 74%
    11:00 +19°C° 0.2 mm 4 mps 767 mmHg 70%
    12:00 +19°C° 0 mm 4 mps 766 mmHg 67%
    13:00 +20°C° 0 mm 4 mps 766 mmHg 64%
    14:00 +20°C° 0 mm 4 mps 765 mmHg 61%
    15:00 +19°C° 0 mm 4 mps 766 mmHg 65%
    16:00 +19°C° 0 mm 3 mps 766 mmHg 69%
    17:00 +18°C° 0 mm 3 mps 767 mmHg 73%
    18:00 +17°C° 0 mm 2 mps 767 mmHg 75%
    19:00 +17°C° 0 mm 2 mps 767 mmHg 78%
    20:00 +16°C° 0 mm 1 mps 767 mmHg 80%
    21:00 +16°C° 0 mm 1 mps 768 mmHg 80%
    22:00 +16°C° 0 mm 1 mps 768 mmHg 81%
    23:00 +15°C° 0 mm 1 mps 768 mmHg 82%

    Day after tomorrow, 1 June, Monday

    Time Temperature Precipitation Wind Pressure Humidity
    00:00 +15°C° 0 mm 1 mps 768 mmHg 83%
    01:00 +15°C° 0 mm 1 mps 768 mmHg 83%
    02:00 +14°C° 0 mm 1 mps 768 mmHg 84%
    03:00 +14°C° 0 mm 1 mps 768 mmHg 84%
    04:00 +14°C° 0 mm 1 mps 768 mmHg 83%
    05:00 +14°C° 0 mm 2 mps 768 mmHg 83%
    06:00 +14°C° 0 mm 2 mps 769 mmHg 83%
    07:00 +14°C° 0 mm 2 mps 769 mmHg 82%
    08:00 +14°C° 0 mm 2 mps 769 mmHg 81%
    09:00 +15°C° 0 mm 2 mps 769 mmHg 75%
    10:00 +18°C° 0 mm 1 mps 769 mmHg 68%
    11:00 +19°C° 0 mm 1 mps 769 mmHg 61%
    12:00 +20°C° 0 mm 1 mps 769 mmHg 59%
    13:00 +21°C° 0 mm 1 mps 768 mmHg 56%
    14:00 +21°C° 0 mm 1 mps 767 mmHg 54%
    15:00 +21°C° 0 mm 1 mps 767 mmHg 57%
    16:00 +20°C° 0 mm 1 mps 767 mmHg 61%
    17:00 +18°C° 0 mm 2 mps 768 mmHg 64%
    18:00 +18°C° 0 mm 2 mps 768 mmHg 65%
    19:00 +18°C° 0 mm 2 mps 768 mmHg 66%
    20:00 +17°C° 0 mm 2 mps 768 mmHg 67%
    21:00 +17°C° 0 mm 2 mps 768 mmHg 69%
    22:00 +16°C° 0 mm 2 mps 768 mmHg 70%
    23:00 +16°C° 0 mm 2 mps 769 mmHg 71%

    2 June, Tuesday

    Time Temperature Precipitation Wind Pressure Humidity
    00:00 +14°C° 0 mm 3 mps 768 mmHg 71%
    01:00 +14°C° 0 mm 3 mps 768 mmHg 71%
    02:00 +14°C° 0 mm 3 mps 768 mmHg 71%
    03:00 +14°C° 0 mm 3 mps 768 mmHg 71%
    04:00 +14°C° 0 mm 3 mps 768 mmHg 71%
    05:00 +14°C° 0 mm 3 mps 768 mmHg 71%
    06:00 +14°C° 0 mm 4 mps 768 mmHg 70%
    07:00 +14°C° 0 mm 4 mps 768 mmHg 69%
    08:00 +14°C° 0 mm 4 mps 768 mmHg 69%
    09:00 +17°C° 0 mm 4 mps 768 mmHg 63%
    10:00 +18°C° 0 mm 4 mps 768 mmHg 57%
    11:00 +20°C° 0 mm 5 mps 768 mmHg 52%
    12:00 +21°C° 0 mm 4 mps 767 mmHg 50%
    13:00 +21°C° 0 mm 4 mps 766 mmHg 47%
    14:00 +22°C° 0 mm 3 mps 766 mmHg 45%
    15:00 +21°C° 0 mm 3 mps 766 mmHg 48%
    16:00 +21°C° 0 mm 2 mps 766 mmHg 51%
    17:00 +20°C° 0 mm 2 mps 766 mmHg 54%
    18:00 +19°C° 0 mm 2 mps 766 mmHg 56%
    19:00 +19°C° 0 mm 3 mps 766 mmHg 57%
    20:00 +18°C° 0 mm 3 mps 766 mmHg 59%
    21:00 +18°C° 0 mm 4 mps 766 mmHg 58%
    22:00 +18°C° 0 mm 4 mps 766 mmHg 58%
    23:00 +18°C° 0 mm 4 mps 766 mmHg 57%

    3 June, Wednesday

    Time Temperature Precipitation Wind Pressure Humidity
    00:00 +18°C° 0 mm 4 mps 766 mmHg 58%
    01:00 +17°C° 0 mm 4 mps 766 mmHg 58%
    02:00 +17°C° 0 mm 4 mps 766 mmHg 58%
    03:00 +17°C° 0 mm 4 mps 765 mmHg 57%
    04:00 +18°C° 0 mm 4 mps 765 mmHg 55%
    05:00 +18°C° 0 mm 4 mps 765 mmHg 54%
    06:00 +17°C° 0 mm 4 mps 765 mmHg 55%
    07:00 +17°C° 0 mm 3 mps 765 mmHg 56%
    08:00 +17°C° 0 mm 3 mps 766 mmHg 57%
    09:00 +18°C° 0 mm 3 mps 765 mmHg 53%
    10:00 +20°C° 0 mm 3 mps 765 mmHg 49%
    11:00 +22°C° 0 mm 4 mps 765 mmHg 45%
    12:00 +22°C° 0 mm 3 mps 765 mmHg 44%
    13:00 +24°C° 0 mm 3 mps 764 mmHg 43%
    14:00 +25°C° 0 mm 3 mps 764 mmHg 42%
    15:00 +24°C° 0 mm 2 mps 764 mmHg 46%
    16:00 +23°C° 0 mm 2 mps 764 mmHg 50%
    17:00 +22°C° 0 mm 1 mps 764 mmHg 55%
    18:00 +21°C° 0 mm 1 mps 764 mmHg 56%
    19:00 +20°C° 0 mm 1 mps 764 mmHg 57%
    20:00 +19°C° 0 mm 1 mps 765 mmHg 59%
    21:00 +19°C° 0 mm 1 mps 765 mmHg 58%
    22:00 +18°C° 0 mm 1 mps 765 mmHg 57%
    23:00 +18°C° 0 mm 1 mps 765 mmHg 56%

    4 June, Thursday

    Time Temperature Precipitation Wind Pressure Humidity
    00:00 +18°C° 0 mm 1 mps 764 mmHg 57%
    01:00 +16°C° 0 mm 1 mps 764 mmHg 58%
    02:00 +16°C° 0 mm 1 mps 764 mmHg 59%
    03:00 +16°C° 0 mm 1 mps 764 mmHg 60%
    04:00 +15°C° 0 mm 1 mps 764 mmHg 61%
    05:00 +15°C° 0 mm 1 mps 764 mmHg 62%
    06:00 +15°C° 0 mm 1 mps 765 mmHg 62%
    07:00 +16°C° 0 mm 1 mps 765 mmHg 62%
    08:00 +16°C° 0 mm 1 mps 766 mmHg 63%
    09:00 +18°C° 0 mm 1 mps 766 mmHg 58%
    10:00 +18°C° 0 mm 0 mps 766 mmHg 53%
    11:00 +20°C° 0 mm 0 mps 766 mmHg 48%
    12:00 +23°C° 0 mm 1 mps 765 mmHg 47%
    13:00 +23°C° 0 mm 1 mps 765 mmHg 46%
    14:00 +24°C° 0 mm 2 mps 765 mmHg 45%
    15:00 +23°C° 0 mm 2 mps 765 mmHg 51%
    16:00 +21°C° 0 mm 2 mps 765 mmHg 57%
    17:00 +20°C° 0 mm 2 mps 765 mmHg 62%
    18:00 +19°C° 0 mm 2 mps 766 mmHg 66%
    19:00 +18°C° 0 mm 2 mps 766 mmHg 71%
    20:00 +17°C° 0 mm 2 mps 766 mmHg 75%
    21:00 +17°C° 0 mm 2 mps 766 mmHg 73%
    22:00 +17°C° 0 mm 2 mps 766 mmHg 71%
    23:00 +18°C° 0 mm 1 mps 766 mmHg 70%
    Show more